SCOUT A DEB, 2644

Orbit data source: Space-Track

SCOUT A DEB, 2644 is space debris in LEO originally from a launch on Thu, 19 May 1966 UTC launched from the Air Force Western Test Range (AFWTR). Debris objects in space refer to the collection of defunct objects orbiting the Earth. Examples of debris include non-operational satellites, rocket bodies, and fragments generated from explosions, collisions, or faulty payload assembly.

Loading next visibility...
Identifier
2644, 1966-041D
Orbit
LEO
Country
Flag of USUS
Related business
Manufacturer
Unknown
Mission
Spacecraft
Bus & Motor
Unknown
Mass
Unknown
Launch date (UTC)
1966-05-19 (60 years ago)
Launch vehicle
Unknown
Launch site
Air Force Western Test Range (AFWTR)
Object type
Payload
Rocket body
Debris
Shape & HBR
Unknown shape, 0.1 m
Radar Cross Section
Small (<0.1 m²)

Expand to show TLE details & history
Last TLE update: 2 weeks ago

TLE from 2 weeks ago
0 SCOUT A DEB
1 02644U 66041D   25337.16573494  .00000452  00000-0  38135-3 0  9996
2 02644  90.1611  41.9400 0210979 240.8069 117.1847 13.77081291971714
Epoch: 2025-12-03T03:58Z
TLE epoch observation values (Epoch: 2025-12-03T03:58:39.498Z)
Latitude
-0.00006°
Longitude
-89.96502°
Altitude
1,050.685 km
Speed
7.29 km/s
True Right ascension
02h 47m 45s
True Declination
0° 00' 00"
Sunlit
Object was in full shadow at epoch
Visualization orbit readout
Latitude
Unknown
Longitude
Unknown
Altitude
Unknown
Speed
Unknown
Apparent Right ascension
Unknown
Apparent Declination
Unknown
Sunlit
N/A
Visualization observer readout
Local Sidereal Time
23:16:46
Azimuth
Unknown
Elevation
Unknown
Doppler factor
Unknown
Orbital elements
Apogee altitude
1,126.323 km
Perigee altitude
816.209 km
Semi-major axis
7,349.403 km
Eccentricity
0.0211
Inclination
90.1611°
RAAN
41.94°
Arg. of periapsis
240.8069°
True anomaly
119.30918°
Mean anomaly
117.1847°
Eccentric anomaly
118.24954°
Mean motion
3.44481 °/min
Orbital period
104.51 mins
BSTAR
0.00038135
Loading maneuver chart data...
Computing Atmospheric mass density...
Loading historical data...
Loading historical data...
Loading historical data...
Loading historical data...
Loading historical data...
Loading historical data...
Loading historical data...

Documentation

Showing up to 5 results
|